{"data":{"norad_id":67274,"epoch":"2026-05-25T03:50:07.494144Z","epoch_age_seconds":51298,"freshness":"FRESH","line1":"1 67274U 25313AC  26145.15980896  .00006436  00000+0  28236-3 0  9996","line2":"2 67274  97.3937 220.1058 0016346  86.9669 273.3438 15.22186841 22448","mean_motion":15.22186841,"eccentricity":0.0016346,"inclination_deg":97.3937,"raan_deg":220.1058,"arg_perigee_deg":86.9669,"mean_anomaly_deg":273.3438,"bstar":0.00028236,"rev_number":2244,"period_min":94.600738964081,"perigee_km":488.00404611051,"apogee_km":510.48758601278,"semimajor_km":6877.3828160616,"source":"CELESTRAK","updated_at":"2026-05-25T13:38:06.851371Z"}}